[[{"header":{"parameterUnit":"m.s-1","parameterCategory":1,"la1":30.2991,"la2":30.254,"lo1":-89.0895,"lo2":-89.0444,"dy":0.0017,"dx":0.0017,"nx":28,"ny":28,"refTime":"2025-07-21T09:00:00:Z","depth":0,"parameterNumber":2,"parameterNumberName":"U-component_of_WINDS"},"data":[0,0,0,0,0,0,0,0,0,0,0,0,0,0,0,0,0,0,0,0,0,0,0,0,0,0,0,0,0,0,0,0,0,0,0,0,0,0,0,0,0,0,0,0,0,0,0,0,0,0,0,0,0,0,0,0,0,0,3.1307,3.1307,0,3.1319,3.1319,3.1319,3.1253,3.1251,3.1249,3.1247,3.1261,3.1263,3.1265,0,0,0,0,0,0,0,0,0,0,0,0,0,3.1232,3.1234,3.1307,3.1307,3.1307,3.1318,3.1319,3.1319,3.1253,3.1251,3.1249,3.1247,3.126,3.1262,3.1265,0,0,0,0,0,0,0,0,0,0,0,0,0,3.1256,3.1234,3.1307,3.1276,3.1273,3.1318,3.1319,3.1319,3.1254,3.1251,3.1248,3.1245,3.1259,3.1262,3.1265,3.1341,0,0,3.1275,3.1276,0,0,0,0,0,0,0,0,3.1255,3.1259,3.128,3.1278,3.1275,3.1281,3.1297,3.1326,3.1254,3.1261,3.1247,3.1244,3.127,3.1272,3.128,3.1342,3.1343,3.1275,3.1277,3.1279,3.1279,0,0,0,0,0,0,0,3.1253,3.1258,3.1311,3.1281,3.1278,3.1263,3.1263,3.1302,3.1281,3.126,3.1256,3.1258,3.1268,3.1278,3.128,3.1343,3.1275,3.1278,3.128,3.1281,3.1472,3.1475,0,0,0,0,0,0,3.1255,3.1257,3.1311,3.1312,3.1258,3.1266,3.1267,3.1282,3.1281,3.1278,3.126,3.1255,3.1274,3.1277,3.1281,3.1372,3.1279,3.1282,3.1283,3.1469,3.1473,3.1476,0,0,0,0,0,0,3.1254,3.1261,3.1311,3.1283,3.1288,3.1271,3.1289,3.1284,3.1293,3.1281,3.1277,3.1274,3.1271,3.1276,3.1328,3.1372,3.1283,3.1286,3.1465,3.147,3.1474,3.1555,0,0,0,0,0,0,3.1252,3.1261,3.1288,3.1284,3.129,3.1357,3.1291,3.1286,3.1299,3.1292,3.1292,3.1289,3.127,3.1323,3.1331,3.1374,3.1288,3.1461,3.1467,3.1473,3.1548,3.1562,3.1573,0,0,0,0,0,3.125,3.131,3.129,3.1297,3.1324,3.1359,3.1363,3.1338,3.1303,3.1331,3.1324,3.1289,3.1366,3.1329,3.1337,3.1382,3.1458,3.1465,3.1472,3.1543,3.1559,3.1573,0,0,0,0,0,0,3.1319,3.1309,3.1286,3.1347,3.1355,3.1348,3.1383,3.1356,3.1374,3.1367,3.1336,3.1337,3.1394,3.1393,3.1353,3.1458,3.1406,3.1415,3.1457,3.1472,3.1485,3.1484,3.1291,0,0,0,0,0,3.1341,3.137,3.1359,3.1414,3.1419,3.1401,3.1415,3.1396,3.1403,3.1406,3.1401,3.141,3.1436,3.1454,3.1477,3.1548,3.1549,3.1583,3.1596,3.1606,3.1615,3.1656,3.1672,3.1499,3.1499,3.1499,0,0,3.1388,3.1386,3.1405,3.1428,3.1432,3.1464,3.1404,3.1439,3.1463,3.1411,3.146,3.1458,3.1466,3.1528,3.1555,3.1529,3.1663,3.1615,3.1624,3.1626,3.1665,3.1681,3.1696,3.1504,3.1503,3.1503,0,0,3.1489,3.1489,3.1536,3.1542,3.1548,3.1536,3.1548,3.1546,3.1543,3.1592,3.1555,3.1583,3.1628,3.1636,3.1646,3.1755,3.1725,3.1763,3.1829,3.187,3.1883,3.1895,3.1937,3.1952,3.1772,3.1772,3.1772,0,3.1546,3.1591,3.1564,3.1603,3.1616,3.1571,3.162,3.1626,3.164,3.1651,3.1621,3.1679,3.168,3.1746,3.1773,3.1782,3.1796,3.1763,3.1883,3.1895,3.1906,3.1945,3.1961,3.1776,3.1776,3.1775,3.1775,0,3.1663,3.1696,3.1733,3.1749,3.1765,3.1809,3.179,3.181,3.1791,3.1783,3.1835,3.1836,3.186,3.1874,3.1854,3.1938,3.1922,3.1888,3.1836,3.1928,3.1964,3.1979,3.1783,3.1782,3.178,3.1779,0,0,3.1807,3.1809,3.1823,3.1832,3.1837,3.1863,3.1906,3.193,3.1949,3.1961,3.1998,3.2039,3.2009,3.2021,3.2002,3.2037,3.2127,3.1999,3.1999,3.2025,3.2223,3.225,3.2268,3.2107,3.211,3.2112,3.2224,0,3.1908,3.1981,3.1959,3.2034,3.2065,3.2025,3.2063,3.2072,3.2066,3.2093,3.2087,3.2117,3.2074,3.2081,3.2114,3.2109,3.2167,3.2101,3.2144,3.2146,3.2145,3.2286,3.2314,3.2419,3.2238,3.224,3.2242,0,3.2035,3.2054,3.2132,3.2135,3.2148,3.2182,3.2204,3.223,3.224,3.2234,3.2249,3.2224,3.2269,3.2216,3.2279,3.2234,3.2251,3.2252,3.2255,3.2259,3.22,3.2297,3.2451,3.2468,3.2263,3.2262,3.226,0,3.2136,3.218,3.2233,3.2241,3.2246,3.2272,3.2275,3.2283,3.23,3.2319,3.2331,3.2355,3.2369,3.239,3.2373,3.2336,3.2441,3.2385,3.2439,3.2439,3.2463,3.2462,3.2625,3.2471,3.2471,3.247,3.247,0,3.2252,3.2302,3.2279,3.2312,3.2368,3.2343,3.24,3.2398,3.2406,3.244,3.2406,3.2438,3.2413,3.2444,3.2432,3.2488,3.2494,3.2492,3.2488,3.2496,3.2497,3.2507,3.25,3.2475,3.2474,3.2473,3.2472,0,3.2375,3.2361,3.2417,3.2417,3.2419,3.246,3.2462,3.2493,3.2486,3.2529,3.2538,3.2527,3.2562,3.2548,3.2584,3.2576,3.2649,3.2634,3.2646,3.2643,3.2698,3.2694,3.2875,3.2899,3.2728,3.2729,3.2731,0,3.2451,3.2488,3.2494,3.2514,3.252,3.2552,3.257,3.2548,3.2569,3.2585,3.2616,3.2648,3.2673,3.2731,3.2727,3.2756,3.2744,3.2806,3.2748,3.2756,3.2748,3.2747,3.2752,3.2817,3.2819,3.2821,3.2822,0,3.2588,3.258,3.2607,3.2633,3.2655,3.2674,3.269,3.2709,3.2688,3.2713,3.2748,3.2768,3.2807,3.284,3.2867,3.2871,3.2845,3.284,3.2855,3.2864,3.287,3.2871,3.2679,3.2837,3.2835,3.2834,3.2833,3.2833,3.2691,3.2724,3.2734,3.2766,3.2776,3.2793,3.2824,3.2821,3.2851,3.2881,3.2866,3.2909,3.2921,3.2954,3.2963,3.2998,3.2974,3.2994,3.2999,3.3005,3.3014,3.2864,3.3002,3.3001,3.3001,3.3001,3.3,0,3.2829,3.2834,3.2864,3.2889,3.2915,3.2887,3.2904,3.2928,3.2966,3.2979,3.3005,3.3048,3.3082,3.3081,3.3113,3.3141,3.313,3.315,3.3149,3.3151,3.3032,3.3018,3.3159,3.3159,3.3159,3.3159,3.3159,3.3158,3.2904,3.296,3.2954,3.3016,3.302,3.3062,3.3075,3.3091,3.3102,3.3152,3.3179,3.3179,3.3188,3.3221,3.3251,3.325,3.3264,3.329,3.3285,3.3174,3.3159,3.3144,3.313,3.3293,3.3293,3.3402,3.3403,3.3403]},{"header":{"parameterUnit":"m.s-1","parameterCategory":1,"la1":30.2991,"la2":30.254,"lo1":-89.0895,"lo2":-89.0444,"dy":0.0017,"dx":0.0017,"nx":28,"ny":28,"refTime":"2025-07-21T09:00:00:Z","depth":0,"parameterNumber":3,"parameterNumberName":"V-component_of_WINDS"},"data":[0,0,0,0,0,0,0,0,0,0,0,0,0,0,0,0,0,0,0,0,0,0,0,0,0,0,0,0,0,0,0,0,0,0,0,0,0,0,0,0,0,0,0,0,0,0,0,0,0,0,0,0,0,0,0,0,0,0,-2.3498,-2.3498,0,-2.3545,-2.3546,-2.3546,-2.3566,-2.3566,-2.3566,-2.3566,-2.3613,-2.3614,-2.3616,0,0,0,0,0,0,0,0,0,0,0,0,0,-2.3423,-2.3425,-2.3498,-2.3498,-2.3499,-2.3545,-2.3546,-2.3547,-2.3566,-2.3566,-2.3566,-2.3565,-2.3613,-2.3614,-2.3616,0,0,0,0,0,0,0,0,0,0,0,0,0,-2.3462,-2.3425,-2.3497,-2.3514,-2.3516,-2.3545,-2.3546,-2.3547,-2.3566,-2.3566,-2.3566,-2.3565,-2.3612,-2.3614,-2.3616,-2.3632,0,0,-2.3622,-2.3623,0,0,0,0,0,0,0,0,-2.346,-2.3464,-2.3511,-2.3513,-2.3515,-2.355,-2.3537,-2.3575,-2.3566,-2.3547,-2.3566,-2.3565,-2.3592,-2.3596,-2.3605,-2.3634,-2.3636,-2.3622,-2.3624,-2.3625,-2.3625,0,0,0,0,0,0,0,-2.3457,-2.3462,-2.3516,-2.3512,-2.3514,-2.3519,-2.3524,-2.3544,-2.357,-2.3549,-2.355,-2.3556,-2.3593,-2.3603,-2.3606,-2.3637,-2.3622,-2.3624,-2.3625,-2.3626,-2.3684,-2.3684,0,0,0,0,0,0,-2.3452,-2.346,-2.3515,-2.3518,-2.3486,-2.3521,-2.3527,-2.3539,-2.3569,-2.3574,-2.3556,-2.3556,-2.3599,-2.3604,-2.3608,-2.363,-2.3625,-2.3626,-2.3628,-2.3683,-2.3684,-2.3684,0,0,0,0,0,0,-2.345,-2.3456,-2.3513,-2.349,-2.3497,-2.3522,-2.3535,-2.354,-2.355,-2.3575,-2.3579,-2.3561,-2.3599,-2.3605,-2.3626,-2.3632,-2.3627,-2.3629,-2.3683,-2.3683,-2.3684,-2.3673,0,0,0,0,0,0,-2.3448,-2.3455,-2.3461,-2.3489,-2.3498,-2.353,-2.3536,-2.3541,-2.3553,-2.3554,-2.3581,-2.3585,-2.36,-2.3623,-2.3628,-2.3635,-2.3631,-2.3683,-2.3683,-2.3684,-2.3673,-2.3673,-2.3673,0,0,0,0,0,-2.3445,-2.3456,-2.3462,-2.3468,-2.3506,-2.3531,-2.3536,-2.3552,-2.3553,-2.356,-2.3577,-2.3585,-2.363,-2.3625,-2.3631,-2.3638,-2.3682,-2.3683,-2.3684,-2.3673,-2.3673,-2.3673,0,0,0,0,0,0,-2.3427,-2.346,-2.3467,-2.3487,-2.3506,-2.3534,-2.3543,-2.3552,-2.357,-2.3571,-2.359,-2.3596,-2.3616,-2.3629,-2.3623,-2.3656,-2.3657,-2.3659,-2.3647,-2.3647,-2.3647,-2.3644,-2.3632,0,0,0,0,0,-2.3425,-2.3442,-2.347,-2.3485,-2.3495,-2.3517,-2.3528,-2.354,-2.356,-2.3568,-2.3586,-2.3606,-2.3625,-2.3637,-2.3655,-2.3675,-2.3682,-2.3683,-2.3683,-2.3683,-2.3685,-2.3698,-2.3699,-2.3686,-2.3686,-2.3686,0,0,-2.3422,-2.3442,-2.3451,-2.3482,-2.3498,-2.3516,-2.3524,-2.3541,-2.3555,-2.3571,-2.3593,-2.3607,-2.363,-2.3651,-2.3661,-2.3662,-2.369,-2.3684,-2.3684,-2.3685,-2.3699,-2.37,-2.3701,-2.3687,-2.3687,-2.3687,0,0,-2.3425,-2.3442,-2.3457,-2.3474,-2.3499,-2.3514,-2.3518,-2.3545,-2.3555,-2.3578,-2.359,-2.3607,-2.3639,-2.3655,-2.3668,-2.368,-2.3688,-2.3685,-2.3686,-2.3699,-2.37,-2.3701,-2.3707,-2.3708,-2.3687,-2.3687,-2.3687,0,-2.3418,-2.3445,-2.3464,-2.3482,-2.3496,-2.3512,-2.3528,-2.3543,-2.3573,-2.3582,-2.3583,-2.3625,-2.3641,-2.3668,-2.3671,-2.368,-2.3686,-2.3682,-2.3698,-2.3699,-2.3701,-2.3706,-2.3708,-2.3686,-2.3686,-2.3686,-2.3686,0,-2.3435,-2.3455,-2.3464,-2.3494,-2.3508,-2.3525,-2.3547,-2.356,-2.3571,-2.3586,-2.361,-2.363,-2.3654,-2.3661,-2.3671,-2.369,-2.369,-2.3694,-2.3696,-2.3701,-2.3707,-2.3709,-2.3686,-2.3686,-2.3686,-2.3686,0,0,-2.3427,-2.3469,-2.3472,-2.3487,-2.3516,-2.3531,-2.355,-2.3574,-2.3586,-2.3606,-2.3623,-2.365,-2.3655,-2.367,-2.3682,-2.3693,-2.3704,-2.3696,-2.3697,-2.3698,-2.3727,-2.3725,-2.3727,-2.3709,-2.371,-2.371,-2.3726,0,-2.3435,-2.3469,-2.3488,-2.3514,-2.3533,-2.355,-2.3566,-2.3586,-2.3602,-2.362,-2.3637,-2.3657,-2.3661,-2.367,-2.3682,-2.37,-2.371,-2.3699,-2.3726,-2.3727,-2.372,-2.373,-2.3726,-2.374,-2.3728,-2.3728,-2.3729,0,-2.3449,-2.3471,-2.3499,-2.3529,-2.3538,-2.3552,-2.3577,-2.3594,-2.3618,-2.3629,-2.3646,-2.3659,-2.3679,-2.3679,-2.3709,-2.3701,-2.3714,-2.3724,-2.3725,-2.3729,-2.3728,-2.3734,-2.3744,-2.3747,-2.3732,-2.3732,-2.3732,0,-2.3442,-2.3478,-2.35,-2.3512,-2.3547,-2.3557,-2.3572,-2.3596,-2.361,-2.3633,-2.3642,-2.3666,-2.3679,-2.3698,-2.3717,-2.3715,-2.3745,-2.3746,-2.3755,-2.3755,-2.3761,-2.376,-2.3774,-2.3768,-2.3767,-2.3767,-2.3767,0,-2.3449,-2.3466,-2.3498,-2.3512,-2.3532,-2.3553,-2.3573,-2.3589,-2.3611,-2.3629,-2.3644,-2.3661,-2.3685,-2.3704,-2.3719,-2.3743,-2.3748,-2.3758,-2.3762,-2.3757,-2.3756,-2.3765,-2.3765,-2.3768,-2.3768,-2.3768,-2.3768,0,-2.3444,-2.3466,-2.3492,-2.3524,-2.3532,-2.3546,-2.3573,-2.3588,-2.3605,-2.3627,-2.3634,-2.366,-2.3684,-2.3705,-2.3736,-2.3747,-2.3771,-2.3775,-2.3763,-2.3766,-2.3774,-2.3773,-2.3795,-2.3799,-2.3789,-2.3789,-2.3789,0,-2.3447,-2.3461,-2.3495,-2.3509,-2.3524,-2.3545,-2.3561,-2.3583,-2.3598,-2.3628,-2.364,-2.3665,-2.3687,-2.3725,-2.3747,-2.3771,-2.3777,-2.3783,-2.3781,-2.3776,-2.3779,-2.3778,-2.378,-2.3783,-2.3783,-2.3783,-2.3783,0,-2.3452,-2.3463,-2.3484,-2.3511,-2.3529,-2.3551,-2.3572,-2.3583,-2.3609,-2.3626,-2.3651,-2.3668,-2.3702,-2.3727,-2.3755,-2.3771,-2.3782,-2.3784,-2.3787,-2.3783,-2.3776,-2.3781,-2.3765,-2.3783,-2.3783,-2.3783,-2.3783,-2.3783,-2.3452,-2.3466,-2.3493,-2.3517,-2.3537,-2.3558,-2.3573,-2.3593,-2.3615,-2.3645,-2.3656,-2.3683,-2.3709,-2.3747,-2.3763,-2.3785,-2.3786,-2.3791,-2.3792,-2.3794,-2.3794,-2.3772,-2.3789,-2.379,-2.379,-2.379,-2.379,0,-2.3458,-2.3477,-2.3499,-2.3531,-2.355,-2.356,-2.3585,-2.3601,-2.3624,-2.3648,-2.367,-2.37,-2.3726,-2.3751,-2.3778,-2.379,-2.3796,-2.3797,-2.3796,-2.38,-2.379,-2.3785,-2.3792,-2.3792,-2.3792,-2.3792,-2.3792,-2.3792,-2.3464,-2.3489,-2.3503,-2.3538,-2.3557,-2.3584,-2.3598,-2.3618,-2.3637,-2.367,-2.3692,-2.3709,-2.3733,-2.3763,-2.3787,-2.3794,-2.3804,-2.3803,-2.3811,-2.3801,-2.3801,-2.38,-2.3795,-2.3805,-2.3805,-2.382,-2.382,-2.3821]}]]